Weather Roundup
Issued by NWS Chicago, IL

Home | Current Version | Previous Version | Text Only | Print | Product List | Glossary On
Versions: 1 2 3 4 5 6 7 8 9 10 11 12 13 14 15 16 17 18 19 20 21 22 23 24 25 26 27 28 29 30 31 32 33 34 35 36 37 38 39 40 41 42 43 44 45 46 47 48 49 50
000
NZUS59 KLOT 251009
HRRLOT

CHICAGO AREA WEATHER ROUNDUP
NATIONAL WEATHER SERVICE CHICAGO/ROMEOVILLE IL
500 AM CDT TUE JUL 25 2017

NOTE: "FAIR" INDICATES FEW OR NO CLOUDS BELOW 12,000 FEET WITH NO
SIGNIFICANT WEATHER AND/OR OBSTRUCTIONS TO VISIBILITY.

* THESE STATIONS ARE NOT UNDER NWS QUALITY CONTROL. THEY ALSO MAY NOT
  REPORT WEATHER SUCH AS PRECIPITATION OR FOG.

ILZ005-006-012>014-019>023-251100-
NORTHEAST ILLINOIS

CITY           SKY/WX    TMP DP  RH WIND       PRES   REMARKS
OHARE          PTCLDY    63  59  87 CALM      30.16R
MIDWAY         PTCLDY    66  62  87 SE3       30.16R
AURORA         CLEAR     57  56  96 CALM      30.16S
LANSING*       CLEAR     59  56  90 SE3       30.16S
JOLIET*        CLEAR     61  61 100 CALM      30.16S
WAUKEGAN       CLEAR     57  57 100 CALM      30.17R
DUPAGE AIRPORT CLEAR     58  58 100 CALM      30.15S
WHEELING       CLEAR     62  62 100 CALM      30.17S
MORRIS*        CLEAR     59  58  96 CALM      30.14F
LEWIS AIRPORT* CLEAR     60  58  90 SE6       30.16S
NORTHERLY ISL    N/A     68  60  75 S3          N/A
$$

WIZ051-052-058>065-066-070>072-251100-
SOUTHEAST WISCONSIN

CITY           SKY/WX    TMP DP  RH WIND       PRES   REMARKS
MILWAUKEE      PTCLDY    60  56  86 NW5       30.17R
KENOSHA*       CLEAR     55  54  96 CALM      30.17R
RACINE*        CLEAR     57  56  96 CALM      30.19R
WAUKESHA       CLEAR     52  52 100 CALM      30.18S
WEST BEND      CLEAR     50  50 100 CALM      30.17S FOG
$$

INZ001>003-010>013-019-020-251100-
NORTHWEST INDIANA

CITY           SKY/WX    TMP DP  RH WIND       PRES   REMARKS
GARY*          NOT AVBL
MICHIGAN CITY* NOT AVBL
RENSSELAER*    NOT AVBL
VALPARAISO     CLOUDY    58  58 100 NE3       30.18R FOG
$$

LMZ740>746-251100-
SOUTHERN LAKE MICHIGAN

STATION/POSITION TIME  SKY/WX   TEMP WIND        PRES    VSBY
                                AIR  DIR/SP/G
                 (UTC)          (F)  (DEG/KT/KT) (MB)    (MI)
HARRISON CRIB    0940            70  150/  9/ 11   N/A
BURNHAM HARBOR   1000            67                N/A
CALUMET HARBOR   0948            66  170/  1/  2 1020.8R
BURNS HARBOR     0940            66  110/  2/  4 1022.0R
MICHIGAN CITY    0940            63  120/  5/  6   N/A
$$

ABBREVIATIONS USED IN REMARKS
   TC - TEMPERATURE IN CELSIUS
  WCI - WIND CHILL INDEX
   HX - HEAT INDEX
  VSB - VISIBILITY
$$




USA.gov is the U.S. government's official web portal to all federal, state and local government web resources and services.